Temperature
16 16 17 17 20 21 22 22 22 22 22 22 21 22 24 25 25 23 19 18 18 18 16 17 16 16 16 16 16 16 16 16 16 16 16 16 16 16 16 16 16 16 16 16 16 16 16 15 15
15 16 17 18 20 21 21 21 21 22 22 20 20 21 23 23 19 18 18 17 18 17 16 16 16 16 16 16 16 16 17 17 16 16 16 16 16 16 16 16 16 16 16 16 16 16 16 15 15
15 16 17 19 20 21 21 21 22 21 20 20 21 21 21 21 18 17 17 17 17 17 16 16 16 16 16 16 16 17 17 17 16 16 16 16 16 16 16 17 17 17 17 16 16 16 16 15 15
15 16 18 19 19 21 21 21 21 21 21 20 21 21 19 17 17 17 17 17 16 16 16 16 16 16 16 16 17 17 17 17 16 16 16 16 16 16 16 17 17 17 17 16 16 16 16 15 15
14 17 18 18 19 20 20 20 20 22 21 21 21 22 19 16 17 17 17 16 16 16 16 16 16 16 16 16 17 17 17 17 17 16 16 16 16 16 16 17 17 17 17 16 16 16 16 15 15
14 16 17 18 19 19 20 19 20 21 21 20 21 21 18 16 16 16 16 16 16 16 16 16 16 16 16 16 17 17 17 17 17 16 16 16 16 16 16 17 17 17 17 16 16 16 16 16 15
15 17 17 19 19 19 19 19 20 21 21 20 20 21 17 16 16 16 16 16 16 16 16 16 16 16 16 16 16 16 17 17 17 17 16 16 16 16 16 17 17 17 16 16 16 16 16 16 15
14 16 17 18 19 19 19 18 19 20 20 18 18 20 18 16 16 16 16 16 15 15 15 16 16 15 15 16 16 16 17 17 17 17 17 16 16 16 16 16 16 16 16 16 16 16 16 16 15
13 15 16 18 19 19 19 19 18 17 18 17 17 17 16 16 16 16 16 15 15 15 15 15 15 15 15 15 16 16 16 17 17 17 17 16 16 16 16 16 16 16 16 16 16 16 16 15 15
14 15 16 18 19 19 18 18 18 18 19 18 17 16 16 16 16 15 15 15 15 15 15 15 15 15 15 15 15 15 16 16 16 16 16 16 15 15 16 16 16 16 16 16 16 16 15 15 15
14 15 17 17 17 17 18 17 17 19 19 18 18 16 16 15 15 15 15 15 15 15 15 15 15 15 15 15 15 15 15 16 15 15 16 16 16 16 16 16 16 16 16 15 15 15 15 14 14
14 15 16 16 15 16 17 17 17 18 18 17 16 16 16 15 15 15 15 15 15 15 15 15 15 15 15 15 15 15 15 15 15 16 16 15 15 16 15 15 15 15 15 15 15 14 14 14 14
14 14 14 14 14 15 16 17 17 17 16 16 16 16 16 16 15 15 15 15 15 15 15 15 15 15 15 15 15 15 15 15 15 15 15 15 15 15 15 15 15 15 14 14 14 14 14 14 14
14 14 14 14 14 15 15 16 16 17 16 16 16 16 16 16 15 15 15 15 15 15 15 15 15 15 15 15 15 15 15 15 15 15 15 15 15 15 15 15 15 14 14 14 14 13 13 13 13
13 14 14 14 15 15 15 16 17 17 16 16 17 16 16 16 15 15 15 16 16 15 15 15 15 15 15 15 15 14 15 15 15 15 15 15 15 15 14 14 14 14 14 14 14 13 13 13 13
13 13 13 14 14 14 15 16 18 16 16 17 17 17 16 16 16 16 16 16 16 16 15 15 15 15 15 15 14 14 14 14 14 14 14 14 14 14 14 14 14 14 13 13 13 13 13 13 13
12 12 13 13 14 15 15 16 18 16 16 17 17 17 17 16 16 16 16 16 16 16 16 15 15 15 15 15 14 14 14 14 14 14 14 14 14 14 14 14 14 13 13 13 13 13 13 13 12
12 13 13 13 14 14 15 16 16 16 15 17 17 17 16 16 16 16 16 16 16 16 16 16 16 15 15 15 15 14 14 14 14 14 14 14 14 14 14 14 14 13 13 13 13 13 13 13 12
12 12 13 13 13 14 14 15 16 16 16 16 17 17 17 16 16 16 16 16 16 16 16 16 16 16 15 15 15 15 15 15 15 15 14 14 14 14 14 14 14 13 13 13 13 13 13 13 12
11 12 12 12 13 13 14 15 16 16 16 16 17 17 17 16 16 16 16 16 16 17 16 16 16 16 15 15 15 15 15 15 15 15 14 14 14 14 14 14 14 13 13 13 13 13 13 12 12
11 12 12 12 12 13 13 14 15 16 16 15 16 16 16 16 15 15 16 16 16 16 16 16 16 16 15 15 15 15 15 15 14 14 14 14 14 14 14 14 13 13 13 13 13 13 12 12 12
10 11 11 12 12 13 13 14 16 16 16 16 16 16 16 15 15 15 15 16 16 16 16 16 16 15 15 15 15 15 15 14 14 14 14 14 14 14 14 13 13 13 13 13 12 12 12 12 11
10 10 11 11 12 12 12 13 15 15 15 16 17 16 16 15 15 15 15 15 16 16 16 16 15 15 15 15 15 15 14 14 14 14 14 14 13 13 13 13 13 12 12 12 12 12 11 11 11
10 10 10 11 11 11 13 13 14 15 16 17 17 16 15 15 14 14 14 15 15 15 15 15 15 15 15 15 14 14 14 14 13 13 13 13 13 13 12 12 12 12 12 11 11 11 11 11 10
10 10 9 10 10 11 12 12 14 16 16 16 16 15 14 13 13 13 13 14 14 14 14 14 14 14 14 14 13 13 13 13 13 13 12 12 12 12 12 11 11 11 11 11 11 10 10 10 10
10 10 10 11 11 12 11 12 15 15 13 13 12 12 12 12 12 12 12 13 13 13 13 13 13 13 13 13 13 12 12 12 12 12 11 11 11 11 11 11 10 10 10 10 10 9 9 9 9
9 10 10 10 10 11 12 13 13 14 13 13 13 12 12 11 11 11 11 11 12 12 12 12 12 12 12 12 12 12 11 11 11 11 11 10 10 10 10 10 9 9 9 9 9 9 8 8 8
9 10 9 9 10 11 12 13 14 14 14 14 13 13 11 10 9 10 10 10 11 11 11 11 11 11 11 11 11 10 10 10 10 10 10 9 9 9 9 9 8 8 8 8 8 8 8 8 7
8 8 9 10 10 11 12 14 14 14 14 13 13 12 10 9 9 9 9 9 10 10 10 10 10 10 10 10 10 10 9 9 9 9 9 8 8 8 8 8 7 7 7 7 7 7 7 7 7
9 9 9 9 9 10 11 13 13 13 12 12 12 10 9 9 9 8 8 9 9 9 10 10 10 9 9 9 9 9 8 8 8 8 8 7 7 7 7 7 6 6 6 6 6 6 6 6 6
Wind_Speed
5 4 2 2 5 6 11 6 4 5 4 1 1 3 3 2 2 3 5 15 17 19 20 21 20 19 18 17 16 15 14 13 12 12 13 13 13 14 14 14 14 15 16 16 16 16 16 15 14
4 3 3 3 7 12 11 7 6 4 2 1 2 2 3 1 3 5 8 14 18 19 20 20 20 19 18 17 16 14 13 12 12 12 12 12 13 13 13 14 14 15 15 15 15 15 14 13 13
3 3 4 5 9 13 10 7 6 2 1 3 3 2 1 2 3 5 9 15 18 18 18 19 20 19 18 17 15 14 12 11 11 11 12 12 12 13 13 14 14 14 14 14 14 13 13 12 11
4 4 5 9 14 10 6 6 4 4 4 2 3 4 3 4 2 5 13 16 18 17 18 20 19 19 18 17 15 13 12 11 11 11 11 12 13 13 13 13 13 13 13 13 12 12 11 11 11
3 5 10 13 15 9 5 3 3 4 4 3 3 4 4 4 2 9 14 16 17 16 17 20 19 19 18 16 15 13 12 11 11 11 11 11 12 12 12 12 12 12 12 11 11 10 10 10 10
6 6 12 18 17 10 7 5 3 3 3 3 2 4 4 3 6 11 14 15 15 15 16 18 20 19 18 16 14 13 12 11 10 10 10 12 12 11 12 11 11 10 10 9 9 9 9 9 8
10 12 16 19 17 12 8 5 5 4 3 3 1 3 4 4 7 10 12 13 14 14 15 16 18 18 17 16 14 13 12 11 10 10 10 11 11 10 10 9 9 9 8 8 8 7 7 7 7
8 9 17 18 18 14 8 5 2 3 3 2 1 2 4 5 8 10 11 11 13 13 13 14 15 15 15 14 14 13 12 11 10 10 11 12 11 9 9 8 8 7 7 7 6 6 6 6 5
7 11 17 19 16 13 9 7 3 2 4 4 3 3 3 10 10 10 10 11 12 12 12 12 13 13 13 12 13 12 11 10 11 10 12 10 7 7 7 6 6 5 5 5 5 4 4 4 4
11 17 21 15 12 10 10 8 5 5 6 4 4 5 6 11 11 11 12 13 14 15 13 12 12 12 12 10 11 10 9 10 9 8 10 7 5 5 4 7 6 5 4 4 4 4 4 4 3
12 17 15 10 9 8 8 6 4 6 4 3 2 3 7 10 10 10 11 12 13 13 13 12 11 12 11 10 9 8 7 7 8 8 8 6 5 5 5 5 6 6 6 5 5 5 4 4 3
12 12 11 10 7 7 7 6 5 5 3 1 1 3 6 9 10 10 10 11 11 12 13 12 11 11 11 10 9 8 7 7 7 7 7 6 5 5 5 5 4 5 5 4 4 4 4 5 5
12 10 9 8 6 6 6 7 7 8 4 2 2 3 5 8 9 9 9 10 11 12 13 12 11 11 10 9 8 8 7 7 7 7 7 7 5 5 5 5 5 5 5 5 5 5 5 6 6
10 10 9 8 8 7 8 9 8 9 5 4 4 4 5 7 9 9 10 11 11 12 12 12 12 12 11 9 8 8 8 7 7 7 8 8 6 6 5 5 6 6 6 6 6 6 6 6 6
9 11 9 8 9 8 8 14 15 11 7 8 7 6 5 6 8 10 11 11 11 12 12 12 12 12 12 11 10 8 8 8 8 7 8 9 8 7 7 6 6 7 7 7 7 7 6 6 7
9 11 12 9 11 9 12 19 18 12 11 12 10 9 7 7 8 8 8 9 10 11 11 11 10 11 12 10 10 8 9 8 8 8 8 9 10 9 8 7 7 7 7 7 6 6 6 7 7
9 13 15 10 11 10 14 16 13 10 12 14 13 11 10 8 8 7 7 8 8 10 11 11 11 11 11 10 9 8 8 8 8 8 8 9 10 10 9 8 8 8 7 7 6 6 7 7 8
14 14 14 12 9 12 15 15 9 8 12 16 15 13 10 9 8 6 6 7 7 8 9 10 9 9 9 8 7 6 6 6 7 7 7 8 9 10 10 8 9 8 6 6 7 8 7 7 7
9 11 12 9 6 11 16 16 13 9 12 16 16 15 13 11 7 5 5 6 7 7 8 9 9 9 8 6 6 6 6 6 5 6 7 7 8 8 9 7 8 7 7 8 9 8 8 7 6
9 10 10 6 5 8 12 16 15 13 14 15 17 17 16 13 9 7 6 7 8 8 8 8 8 7 7 6 6 4 4 4 4 4 4 5 6 7 7 8 6 6 7 8 8 7 6 6 5
8 10 9 7 5 6 8 13 18 17 16 15 16 16 16 14 13 10 9 8 8 8 8 7 7 6 6 6 5 4 3 3 4 4 3 3 4 5 5 6 6 6 6 6 7 7 9 8 7
6 6 7 8 8 7 9 9 14 16 17 18 18 17 16 14 13 11 10 9 8 7 6 7 6 6 5 5 6 7 6 6 5 4 3 2 2 2 3 4 5 5 5 6 7 7 7 8 7
4 4 5 7 9 7 9 9 9 10 16 19 19 18 17 14 13 12 10 9 8 7 6 6 6 5 4 4 5 5 5 4 3 3 3 3 1 1 2 3 3 4 4 5 6 6 6 6 7
5 6 3 3 5 9 13 12 10 10 14 15 16 16 15 14 12 11 9 8 8 7 7 6 7 6 4 4 4 5 5 5 5 4 4 3 2 1 1 2 2 3 3 4 4 5 5 5 6
6 7 4 6 7 8 7 10 10 8 9 11 12 12 11 10 10 11 11 11 10 10 8 7 7 6 5 5 4 4 3 3 4 3 3 3 2 1 1 2 2 2 2 3 3 3 3 4 4
9 7 5 5 6 4 6 10 8 5 6 8 9 9 8 9 9 10 12 12 11 10 9 9 8 7 6 5 4 3 3 2 1 1 1 1 1 1 1 2 2 2 2 2 2 1 1 1 1
7 6 2 1 1 4 7 6 8 7 7 7 7 7 8 8 8 10 11 11 11 11 10 9 8 7 6 5 4 4 3 3 2 2 1 1 0 1 1 1 2 2 2 2 1 0 0 1 1
3 4 4 4 4 6 7 8 6 6 6 4 4 5 5 5 7 9 10 11 10 10 9 8 8 7 6 5 4 3 3 3 2 2 1 1 1 1 1 1 1 1 2 1 1 1 2 3 3
7 5 6 5 4 5 5 4 2 4 3 3 4 4 4 5 7 9 10 10 10 9 9 8 8 7 6 5 4 4 3 3 2 2 1 1 1 1 1 1 1 1 2 2 2 3 3 4 4
9 10 9 6 6 5 6 5 2 3 3 4 4 3 3 5 7 9 10 10 10 10 9 8 8 7 6 5 5 4 4 3 3 2 2 1 1 1 1 1 2 2 2 3 3 4 4 5 5
Wind_Direction
303 299 270 229 207 214 213 190 184 173 180 177 266 241 220 184 183 99 118 154 148 152 153 154 151 148 142 135 130 126 122 121 121 119 117 112 106 98 94 91 90 92 93 93 93 91 89 87 85
289 270 223 214 217 209 203 189 184 171 146 146 173 201 195 117 44 95 142 153 152 152 154 157 149 147 142 136 133 129 126 125 125 124 121 115 109 102 98 95 93 93 94 94 93 92 88 85 85
238 244 210 201 218 215 195 181 176 153 173 186 157 152 112 70 84 125 149 155 154 152 155 149 148 145 141 138 135 131 128 128 129 129 126 119 113 106 102 99 98 97 98 98 97 92 88 84 83
198 188 202 214 212 211 189 157 166 162 147 151 161 136 106 46 26 128 148 158 155 153 155 149 149 144 142 140 137 135 134 134 136 133 130 124 115 110 107 105 104 104 103 102 100 94 88 83 82
201 198 202 210 210 198 189 154 157 163 153 139 166 138 108 40 55 137 151 158 156 154 154 152 149 144 143 141 140 140 138 137 138 139 136 129 120 115 114 111 110 109 108 106 103 97 91 85 84
180 196 206 206 200 194 193 192 180 156 134 121 148 136 85 64 119 141 151 158 157 154 154 153 149 145 145 144 144 143 141 140 138 139 138 131 124 119 119 117 115 114 113 111 107 100 94 89 88
195 199 211 209 198 195 193 194 202 173 146 103 109 136 106 104 128 142 150 157 158 158 158 156 157 152 148 147 147 145 142 140 140 138 136 130 127 124 125 124 123 121 119 115 111 106 99 94 92
208 203 213 210 203 198 186 174 183 195 131 76 22 130 120 129 139 141 145 157 162 163 164 161 162 161 159 156 152 148 144 143 141 137 135 133 134 133 134 141 132 131 128 124 119 114 107 100 98
192 206 210 205 204 194 180 173 148 114 120 96 62 41 82 133 144 145 149 161 168 170 170 168 166 165 163 159 154 155 151 149 149 146 142 153 161 156 157 138 134 140 139 136 132 127 117 120 125
193 209 213 209 209 197 180 177 161 155 144 122 82 64 120 146 157 161 166 171 176 177 177 175 172 169 166 159 163 165 164 166 176 164 166 177 172 167 162 143 157 155 151 154 147 145 169 218 203
197 213 208 202 202 197 182 175 182 185 172 129 79 100 144 162 169 174 179 181 182 180 179 180 177 175 172 169 170 169 171 173 178 177 178 181 180 178 186 182 179 188 192 200 179 205 224 240 252
196 206 200 191 188 196 197 193 205 217 202 139 73 141 161 178 184 185 187 187 187 186 187 184 181 181 182 179 177 178 180 183 182 184 187 190 195 200 201 207 203 208 211 217 228 241 239 245 248
197 189 193 191 183 201 208 218 228 232 216 209 156 151 179 193 195 195 195 194 195 196 194 190 188 188 186 185 184 188 191 191 190 189 198 203 207 210 209 216 216 224 227 228 237 246 251 255 258
192 182 184 191 197 208 225 235 235 235 215 214 204 203 204 208 204 201 201 201 202 204 200 196 197 196 191 193 194 194 197 196 198 199 205 209 216 219 221 226 227 231 232 239 246 252 259 263 263
177 181 186 202 206 210 225 239 234 233 229 234 225 220 217 216 212 212 210 208 206 207 206 202 202 202 200 202 203 203 203 204 206 207 210 212 219 224 227 235 234 236 237 241 247 254 259 264 264
177 191 200 202 204 202 212 235 230 225 231 238 234 228 223 220 217 217 217 214 211 209 209 206 202 205 206 206 206 207 208 208 210 212 214 218 223 227 232 236 240 242 242 242 244 252 253 256 260
187 201 202 193 199 198 213 237 234 223 231 236 235 231 227 226 220 216 216 215 213 212 208 207 206 209 210 210 209 211 212 212 215 216 220 223 227 230 233 240 245 243 240 241 243 248 253 261 264
190 196 197 197 191 204 217 231 230 221 225 232 234 232 227 232 228 215 211 210 207 209 207 203 201 207 208 207 207 209 214 216 216 218 222 226 230 231 233 239 244 243 239 241 241 246 247 257 269
181 194 197 201 192 209 223 233 234 232 229 231 231 232 231 232 227 212 208 202 197 199 200 200 199 200 199 197 201 207 211 212 214 220 227 229 233 233 232 239 244 239 240 245 247 248 251 251 252
178 191 199 200 201 216 231 239 239 238 237 235 234 233 232 230 222 212 205 197 196 194 194 194 193 194 197 200 199 204 203 213 214 209 221 231 235 237 237 240 245 241 245 248 248 243 247 250 233
188 200 198 196 186 213 236 244 237 235 236 237 236 235 235 232 229 217 207 197 192 189 188 186 185 186 192 194 188 175 182 195 201 208 211 225 233 236 238 243 246 247 242 247 247 242 243 253 245
190 202 203 202 201 211 216 246 233 227 229 231 232 230 229 229 230 223 211 202 191 183 175 176 171 169 173 187 197 200 209 219 220 216 210 211 224 241 249 254 255 255 250 251 253 249 248 253 254
176 165 189 208 217 228 215 241 248 220 231 231 229 229 230 229 227 221 210 200 185 171 164 160 155 149 152 169 189 200 211 216 206 206 210 208 201 260 287 280 273 267 264 262 262 259 250 247 252
146 144 143 191 216 235 223 227 254 225 230 232 230 229 230 230 228 221 205 187 176 164 157 154 150 141 142 151 164 182 191 195 200 210 216 216 214 228 324 317 296 288 284 277 273 270 264 258 256
181 170 177 192 210 231 199 225 248 242 236 240 240 235 231 227 219 209 197 188 178 169 163 159 153 142 136 133 137 150 168 187 205 215 220 223 225 237 324 332 313 307 301 294 286 275 269 268 261
193 205 218 213 212 206 194 231 244 249 251 253 256 256 246 232 218 206 197 188 179 172 166 163 157 147 140 133 125 123 130 144 153 171 204 221 248 329 350 345 341 335 327 313 298 283 282 294 282
183 210 247 291 259 239 226 243 269 248 242 244 250 251 244 231 216 203 191 184 177 172 169 165 158 151 145 138 133 125 120 121 126 128 125 108 62 17 360 0 355 358 355 346 327 10 45 65 58
227 174 175 205 220 238 240 244 241 209 218 233 251 254 248 226 208 196 187 180 175 169 163 161 160 154 148 145 137 128 123 120 126 133 128 115 73 43 15 14 16 19 28 40 72 83 80 95 78
182 191 212 215 243 250 254 242 212 227 238 256 276 276 251 218 200 189 182 177 170 164 164 163 161 158 154 150 144 142 134 130 133 132 123 114 93 71 56 47 53 56 57 67 92 94 95 97 90
220 216 207 216 221 232 261 260 129 237 264 270 280 281 239 208 192 185 180 175 174 173 173 171 170 168 163 157 154 149 144 146 149 140 127 118 108 89 83 89 91 80 75 80 96 98 94 97 94
Height
1534 1535 1537 1539 1538 1534 1529 1529 1529 1530 1530 1532 1532 1531 1529 1528 1530 1537 1538 1539 1542 1545 1549 1551 1555 1558 1560 1561 1562 1563 1564 1564 1564 1564 1565 1565 1565 1565 1565 1564 1564 1565 1565 1565 1565 1565 1565 1566 1566
1533 1535 1538 1538 1533 1532 1530 1528 1529 1529 1531 1532 1532 1532 1531 1532 1534 1535 1535 1539 1543 1547 1550 1553 1556 1558 1561 1562 1564 1564 1565 1565 1566 1566 1567 1567 1567 1567 1567 1567 1567 1567 1567 1567 1567 1567 1568 1568 1568
1532 1534 1537 1533 1530 1526 1526 1527 1528 1530 1532 1532 1532 1532 1533 1534 1535 1535 1536 1539 1544 1548 1551 1554 1556 1559 1561 1563 1565 1566 1566 1567 1567 1568 1568 1569 1569 1569 1569 1569 1569 1569 1569 1569 1569 1570 1570 1570 1570
1532 1535 1535 1531 1528 1525 1525 1527 1529 1530 1531 1532 1531 1532 1534 1535 1535 1536 1536 1541 1546 1549 1552 1554 1557 1560 1562 1564 1565 1566 1567 1568 1568 1569 1570 1571 1571 1571 1571 1571 1571 1571 1571 1571 1572 1572 1572 1572 1572
1530 1532 1530 1527 1525 1526 1528 1530 1530 1528 1529 1531 1531 1531 1534 1535 1534 1536 1538 1542 1547 1550 1553 1555 1558 1561 1563 1565 1566 1567 1568 1569 1570 1570 1571 1572 1572 1573 1573 1573 1573 1573 1573 1573 1574 1574 1574 1574 1574
1529 1528 1526 1524 1523 1526 1528 1531 1530 1529 1529 1531 1531 1532 1535 1535 1535 1537 1540 1544 1548 1551 1554 1556 1559 1561 1564 1565 1567 1568 1569 1570 1571 1572 1573 1573 1574 1574 1574 1575 1575 1575 1575 1575 1575 1576 1576 1576 1576
1526 1524 1521 1518 1520 1525 1528 1530 1530 1529 1529 1531 1532 1532 1535 1536 1537 1538 1541 1545 1549 1551 1554 1557 1559 1562 1564 1566 1567 1569 1570 1571 1572 1573 1573 1574 1575 1575 1576 1576 1576 1576 1576 1577 1577 1577 1577 1577 1577
1523 1524 1521 1518 1519 1523 1527 1530 1530 1530 1531 1533 1533 1533 1536 1537 1538 1540 1542 1546 1549 1552 1555 1557 1560 1562 1564 1566 1567 1569 1570 1571 1572 1573 1574 1575 1576 1576 1576 1577 1577 1577 1577 1577 1578 1578 1578 1578 1578
1523 1524 1520 1517 1519 1522 1527 1529 1531 1531 1532 1533 1534 1535 1536 1537 1538 1541 1543 1546 1549 1552 1554 1557 1560 1562 1564 1566 1567 1569 1570 1571 1572 1573 1574 1575 1576 1577 1577 1577 1578 1578 1578 1578 1578 1578 1578 1578 1578
1521 1519 1516 1517 1519 1522 1526 1528 1530 1531 1532 1533 1535 1535 1535 1537 1539 1541 1543 1546 1548 1551 1554 1556 1559 1561 1564 1565 1567 1569 1570 1571 1572 1573 1574 1575 1576 1577 1577 1577 1577 1578 1578 1578 1578 1578 1578 1578 1578
1517 1515 1516 1520 1523 1524 1526 1528 1530 1530 1531 1533 1534 1535 1536 1537 1539 1541 1544 1546 1548 1551 1553 1556 1558 1560 1562 1564 1566 1568 1569 1570 1572 1573 1574 1575 1575 1576 1576 1577 1577 1577 1577 1577 1577 1577 1577 1577 1577
1516 1517 1518 1521 1524 1526 1527 1528 1530 1530 1532 1533 1534 1535 1536 1538 1539 1541 1543 1545 1548 1550 1552 1554 1557 1559 1561 1563 1565 1567 1568 1570 1571 1572 1573 1574 1574 1575 1576 1576 1576 1576 1577 1577 1577 1577 1577 1576 1576
1515 1518 1520 1523 1525 1526 1527 1528 1529 1530 1531 1532 1533 1535 1536 1537 1539 1541 1543 1545 1547 1549 1551 1553 1555 1558 1560 1562 1564 1565 1567 1569 1570 1570 1571 1572 1573 1574 1574 1575 1575 1575 1576 1576 1576 1576 1576 1575 1575
1515 1518 1521 1523 1524 1526 1527 1528 1529 1528 1530 1532 1533 1534 1535 1537 1538 1540 1542 1543 1545 1548 1550 1552 1554 1556 1558 1560 1562 1564 1566 1567 1568 1569 1570 1571 1571 1572 1572 1573 1573 1574 1574 1574 1574 1574 1574 1573 1573
1516 1518 1520 1522 1523 1525 1528 1526 1525 1527 1529 1530 1531 1533 1534 1535 1536 1538 1540 1542 1544 1546 1548 1550 1552 1554 1556 1558 1561 1562 1564 1565 1566 1567 1568 1569 1569 1570 1571 1571 1572 1572 1572 1572 1572 1572 1571 1571 1570
1516 1517 1519 1520 1522 1524 1528 1522 1519 1525 1527 1528 1529 1531 1532 1533 1534 1536 1538 1540 1542 1544 1546 1548 1550 1552 1554 1556 1558 1560 1562 1563 1564 1565 1566 1567 1567 1568 1569 1569 1569 1570 1570 1569 1569 1569 1569 1568 1568
1516 1515 1514 1518 1520 1521 1522 1518 1518 1522 1524 1525 1526 1528 1530 1531 1532 1533 1535 1537 1539 1541 1544 1546 1548 1550 1552 1554 1556 1558 1559 1560 1562 1563 1564 1564 1565 1565 1566 1566 1567 1567 1567 1567 1566 1566 1566 1565 1565
1512 1512 1513 1515 1518 1519 1519 1516 1518 1520 1522 1522 1523 1525 1527 1528 1529 1530 1532 1534 1536 1539 1541 1543 1545 1547 1549 1551 1553 1555 1556 1558 1559 1560 1560 1561 1562 1562 1563 1563 1564 1564 1563 1563 1563 1563 1562 1561 1561
1511 1512 1514 1515 1518 1519 1517 1516 1516 1517 1519 1519 1520 1521 1523 1525 1527 1527 1529 1531 1533 1536 1538 1540 1543 1545 1547 1548 1550 1552 1553 1554 1555 1556 1557 1558 1558 1559 1559 1559 1560 1560 1560 1559 1559 1558 1558 1557 1557
1514 1515 1515 1517 1518 1518 1516 1514 1513 1514 1515 1515 1516 1517 1519 1522 1523 1524 1526 1528 1530 1533 1535 1537 1540 1542 1544 1545 1547 1549 1550 1551 1552 1553 1553 1554 1554 1555 1555 1555 1555 1555 1555 1555 1554 1554 1553 1552 1552
1515 1514 1515 1516 1517 1517 1517 1512 1509 1509 1511 1512 1513 1514 1515 1517 1520 1521 1523 1525 1527 1530 1532 1534 1536 1539 1541 1542 1544 1545 1546 1547 1548 1549 1549 1549 1550 1550 1550 1550 1550 1550 1550 1549 1549 1549 1548 1547 1547
1516 1516 1517 1517 1517 1515 1516 1510 1500 1501 1504 1506 1508 1509 1511 1513 1516 1517 1519 1521 1523 1526 1528 1530 1533 1535 1537 1539 1540 1541 1542 1543 1544 1544 1545 1545 1545 1545 1545 1545 1545 1545 1544 1544 1544 1543 1542 1542 1541
1515 1518 1518 1517 1515 1515 1514 1512 1497 1498 1499 1498 1501 1503 1506 1509 1511 1513 1515 1517 1519 1522 1524 1526 1528 1531 1533 1535 1536 1537 1538 1539 1540 1540 1540 1540 1540 1540 1540 1540 1539 1539 1539 1538 1538 1537 1537 1536 1536
1517 1519 1520 1519 1517 1518 1507 1510 1497 1492 1491 1491 1495 1498 1501 1504 1506 1508 1510 1512 1515 1517 1520 1522 1524 1526 1529 1530 1532 1533 1534 1534 1535 1535 1535 1535 1535 1535 1534 1534 1534 1533 1533 1532 1532 1532 1531 1531 1530
1518 1519 1520 1520 1518 1509 1504 1506 1493 1486 1489 1490 1492 1494 1497 1499 1501 1503 1505 1507 1509 1512 1515 1518 1520 1523 1524 1526 1527 1528 1529 1530 1530 1530 1530 1530 1530 1529 1529 1529 1528 1528 1527 1527 1526 1526 1525 1525 1525
1514 1514 1513 1511 1507 1502 1509 1501 1487 1487 1489 1490 1491 1492 1493 1494 1496 1497 1499 1502 1505 1508 1511 1514 1517 1519 1521 1522 1523 1524 1525 1525 1525 1526 1526 1525 1525 1524 1524 1524 1523 1523 1522 1522 1521 1521 1520 1520 1519
1514 1513 1513 1512 1510 1507 1497 1493 1488 1485 1486 1488 1489 1489 1490 1491 1492 1493 1495 1498 1501 1505 1508 1511 1513 1515 1517 1518 1519 1520 1520 1521 1521 1521 1521 1521 1520 1520 1519 1519 1518 1518 1517 1517 1516 1516 1515 1515 1515
1514 1511 1515 1515 1510 1501 1491 1489 1482 1480 1481 1483 1485 1486 1486 1487 1488 1490 1492 1495 1498 1502 1505 1508 1510 1512 1514 1515 1516 1516 1516 1517 1517 1517 1516 1516 1516 1515 1515 1514 1514 1513 1513 1512 1512 1511 1511 1511 1510
1514 1515 1511 1508 1505 1500 1491 1483 1477 1479 1481 1482 1483 1484 1484 1485 1486 1487 1489 1492 1495 1499 1502 1505 1507 1509 1510 1511 1512 1513 1513 1513 1513 1513 1512 1512 1511 1511 1510 1510 1509 1509 1508 1508 1508 1507 1507 1507 1506
1507 1506 1507 1508 1505 1502 1493 1484 1479 1481 1482 1483 1482 1482 1482 1483 1484 1486 1488 1490 1493 1496 1499 1502 1504 1506 1507 1508 1509 1509 1509 1509 1509 1508 1508 1508 1507 1507 1507 1506 1506 1505 1505 1504 1504 1504 1503 1503 1503